RH
53 54 56 53 52 68 60 65 70 75 81 83 80 77 73 76 79 81 79 72 78 78 79 81 77 74 81 89 90 89 87 93 96 95 95 94 97 96 91 92 93 95 97
52 55 55 53 52 67 62 64 76 72 78 79 79 81 78 75 75 77 81 83 86 88 88 83 82 77 79 85 89 87 92 90 94 90 91 97 98 98 98 98 99 97 97
51 52 51 50 55 71 67 66 72 68 69 71 75 78 77 75 78 79 81 85 87 90 91 93 91 86 95 90 89 88 88 90 91 93 99 99 99 98 98 98 98 98 98
45 46 51 51 55 63 63 61 68 66 68 74 75 73 73 73 76 77 79 82 84 88 91 90 90 92 93 91 94 97 95 97 98 99 99 99 99 98 99 99 99 99 98
48 46 51 52 55 63 60 61 65 67 67 69 75 70 61 60 65 73 74 75 80 83 86 89 90 89 92 93 91 97 93 96 99 99 99 98 99 99 99 99 98 98 98
50 50 54 60 59 71 63 65 75 72 72 71 67 70 64 56 92 90 78 73 74 75 77 76 74 76 82 88 88 89 88 93 94 95 97 98 96 93 94 97 96 98 99
69 52 54 62 70 72 63 64 77 78 77 71 70 66 67 68 90 91 85 67 69 70 70 65 57 56 70 65 80 78 79 83 84 82 84 82 85 91 91 93 92 90 92
63 64 66 74 74 73 70 76 80 77 77 75 74 75 68 66 87 89 86 62 63 63 62 62 63 62 69 55 54 54 55 59 61 53 68 70 73 77 82 80 81 84 85
61 66 70 74 77 87 80 82 80 79 76 74 72 74 70 70 86 84 78 57 61 63 63 70 55 58 89 84 55 58 55 49 65 72 70 73 73 73 69 59 56 56 57
63 68 73 83 87 91 92 90 87 84 74 70 72 74 80 69 92 86 75 51 58 51 57 60 86 77 87 83 64 60 61 56 52 54 53 59 55 55 60 62 40 47 66
72 76 84 92 98 97 95 95 92 80 79 72 76 72 75 89 83 89 82 54 57 50 45 48 54 82 84 80 75 60 63 57 60 45 35 29 31 35 35 44 58 40 43
80 82 86 93 97 98 97 98 98 90 81 79 81 67 67 76 94 89 85 82 71 51 51 47 56 80 76 76 57 68 69 69 35 28 26 27 28 29 36 44 58 54 49
83 88 91 93 95 97 98 99 100 99 91 92 99 99 99 98 83 86 86 82 81 54 47 59 74 77 67 53 62 61 70 33 28 28 28 29 30 33 48 48 56 58 55
85 88 90 92 95 96 98 99 99 99 99 100 99 96 98 89 88 78 68 53 67 60 66 52 62 62 69 48 44 40 30 30 30 28 29 28 28 29 29 28 30 32 34
75 74 75 77 84 93 97 97 98 100 99 98 92 91 90 84 84 88 72 60 49 55 63 56 52 34 32 32 33 32 31 32 31 31 30 28 27 29 30 29 29 30 30
68 62 63 64 65 68 74 80 91 94 96 96 95 86 81 88 85 85 81 75 75 72 50 42 34 32 31 30 31 31 32 35 31 30 29 27 27 28 30 30 30 30 31
67 64 56 56 53 56 59 64 73 78 87 88 89 87 83 81 85 84 82 75 69 67 39 32 33 33 32 30 28 28 29 33 48 31 30 29 28 29 33 29 30 29 31
54 58 38 33 31 32 35 38 40 45 49 53 75 65 79 82 85 82 82 75 34 45 34 29 31 32 31 31 29 30 31 33 33 32 32 29 29 27 26 28 27 29 28
27 22 22 21 21 27 22 21 21 27 30 37 41 54 62 83 83 79 80 40 35 24 24 26 30 31 31 31 33 36 40 34 34 36 36 31 30 28 28 25 26 40 31
29 47 36 24 22 22 22 22 24 27 29 28 28 28 31 43 35 31 30 32 26 23 22 25 27 31 31 36 36 36 36 38 37 32 34 30 30 29 27 25 24 25 28
23 26 52 22 22 22 23 24 25 24 22 21 25 35 64 28 25 26 26 26 26 24 24 25 24 26 31 34 36 35 32 29 31 32 31 30 30 29 29 27 25 24 24
24 24 23 23 25 27 26 26 27 25 24 22 22 30 53 23 22 20 22 22 22 24 24 28 25 24 23 28 31 32 32 30 29 28 30 28 28 28 27 25 24 24 24
24 24 25 26 29 43 32 27 25 26 25 24 23 21 23 21 20 20 20 20 22 24 25 27 28 26 23 26 27 29 27 28 27 27 28 29 29 28 28 26 22 24 24
25 27 29 30 36 30 28 28 29 44 29 26 24 25 23 23 22 24 24 24 24 25 27 27 27 26 27 26 25 25 25 27 27 26 29 29 30 32 27 27 21 22 23
37 36 42 46 48 33 37 31 34 32 29 39 36 40 34 31 29 26 26 26 28 29 28 27 27 28 30 31 29 25 44 54 35 57 27 30 32 35 28 25 22 20 24
32 43 32 31 30 30 31 33 34 33 32 30 30 31 30 29 30 31 34 40 34 29 29 31 30 29 30 28 29 40 66 70 44 56 31 28 28 28 27 27 26 22 24
Wind_Speed
8 6 4 4 3 4 4 8 7 7 6 7 7 8 8 9 9 8 8 7 7 5 4 3 2 4 4 4 3 3 3 4 5 1 2 4 8 8 8 8 7 8 8
7 6 4 4 4 4 4 8 7 7 6 6 6 7 8 9 10 10 9 9 9 9 9 3 4 3 4 4 2 3 2 2 1 4 2 4 6 6 5 7 5 6 8
8 7 5 4 6 6 5 6 6 6 7 7 8 7 8 9 9 10 11 10 11 11 10 9 9 7 7 6 6 4 2 3 3 2 3 3 2 2 4 5 5 6 7
7 5 6 4 5 6 4 5 7 5 8 8 7 6 7 9 9 9 10 10 10 11 10 10 10 9 8 7 6 6 6 6 5 6 4 3 3 3 2 3 4 5 5
5 7 7 5 4 7 4 5 6 6 7 8 7 6 7 9 9 8 9 10 10 10 10 10 11 13 16 12 5 6 6 5 4 4 5 3 3 2 2 2 3 4 5
3 6 4 4 5 8 4 4 8 5 5 6 7 7 8 8 12 12 7 8 8 8 9 9 8 11 14 14 15 15 10 4 5 3 3 4 3 3 2 3 3 2 2
5 8 5 4 5 8 5 6 8 5 5 5 6 6 8 9 11 11 8 6 7 8 8 7 9 7 7 10 11 14 14 12 12 8 8 6 4 3 2 5 2 3 3
3 6 6 3 4 8 6 6 8 5 4 4 5 5 7 6 10 13 17 8 8 9 9 9 9 9 11 9 11 12 13 14 12 9 9 8 7 5 5 4 6 7 4
3 1 4 7 5 6 6 8 8 6 4 4 5 5 6 7 11 13 13 7 8 10 10 13 8 9 13 14 9 10 11 11 9 11 10 8 7 9 6 6 5 4 4
6 6 7 7 4 3 5 6 7 6 6 4 7 7 8 7 12 13 12 2 5 7 8 9 16 10 10 13 5 5 6 6 6 7 6 4 4 5 9 8 8 2 3
5 6 7 8 9 6 5 4 3 7 7 7 7 6 8 8 7 11 14 4 2 4 6 5 6 8 10 11 10 5 6 4 3 5 4 4 3 6 7 7 8 8 9
6 8 9 9 7 7 8 6 7 3 9 8 5 6 6 8 11 10 12 13 11 7 5 6 5 5 9 9 5 6 7 8 6 2 3 4 4 5 6 6 7 7 8
8 10 10 10 9 7 7 7 6 7 6 6 5 4 4 3 4 9 12 11 12 5 6 8 6 2 8 7 3 6 7 7 2 2 4 3 4 4 4 5 5 5 6
9 9 9 9 9 8 6 5 4 4 4 4 4 5 3 4 4 3 3 6 8 7 5 3 3 3 6 5 5 4 5 6 5 4 3 3 2 2 3 3 2 1 2
8 9 9 8 9 8 7 5 5 4 2 3 3 3 4 4 3 3 1 4 4 4 4 2 6 5 2 2 2 1 2 2 1 2 2 2 2 1 2 2 3 2 2
7 7 6 6 6 6 6 7 13 8 10 9 9 4 3 6 6 5 5 5 3 5 5 9 2 2 1 1 1 2 2 2 2 2 2 3 3 3 3 1 2 3 3
8 8 7 7 7 7 7 6 7 6 9 8 7 7 6 6 5 3 2 2 4 6 8 2 2 1 1 2 2 3 1 5 2 2 2 2 2 2 4 1 2 2 1
6 4 5 4 4 4 4 6 8 8 8 7 2 3 5 3 2 2 2 6 7 7 8 1 2 1 2 2 3 2 1 2 3 2 2 2 2 4 3 2 3 2 3
7 5 5 5 5 3 4 4 4 4 5 8 7 6 5 3 1 3 3 7 10 2 1 2 2 2 3 2 3 3 4 3 4 2 4 4 3 5 3 4 1 1 2
7 7 5 6 5 5 4 5 5 4 2 4 5 8 8 7 6 6 7 8 5 4 2 4 3 3 3 2 3 3 3 5 5 6 7 4 3 4 5 3 5 3 7
7 5 4 4 4 4 4 4 4 3 2 2 2 8 9 6 7 7 6 6 4 5 3 4 5 5 5 3 4 6 6 6 6 6 7 4 5 5 5 5 6 5 6
7 6 3 5 4 3 3 0 1 1 0 0 3 7 5 6 8 4 4 4 4 3 4 4 6 6 6 6 5 5 6 8 6 6 6 7 6 6 6 6 7 7 7
5 4 5 4 2 3 7 7 4 4 4 3 2 5 8 6 7 7 5 5 5 5 4 4 6 7 6 5 6 6 8 8 7 6 6 7 7 7 7 7 8 8 8
5 2 3 3 5 7 7 7 7 3 6 6 5 4 4 5 5 6 5 6 7 6 6 6 7 8 7 6 5 6 8 8 7 7 8 8 9 8 7 8 9 10 8
1 2 3 3 3 4 7 8 6 9 4 6 5 3 5 6 6 7 7 7 7 8 8 8 8 9 10 11 12 12 8 6 3 3 5 11 10 12 10 9 9 10 11
3 5 3 6 5 4 5 5 5 6 6 6 4 3 5 7 8 9 7 6 7 9 10 7 9 14 14 13 13 14 11 9 9 8 7 9 10 10 10 11 13 11 12
Wind_Direction
154 132 152 96 87 53 24 61 18 30 20 25 22 13 20 27 35 60 59 46 64 65 57 358 291 239 252 268 254 270 258 234 252 277 84 75 54 70 58 48 43 63 51
142 134 147 130 77 69 21 73 62 35 37 47 30 29 38 44 42 58 60 53 56 50 38 23 16 313 317 315 319 295 280 274 270 268 115 82 71 65 75 71 48 31 58
156 145 153 139 108 92 49 41 71 51 58 51 54 37 41 54 64 68 74 65 57 54 51 47 32 44 46 40 45 30 25 54 64 61 79 71 107 114 79 62 61 52 45
159 161 150 178 113 101 95 71 73 42 60 56 37 43 52 61 61 60 74 76 72 66 60 54 48 41 40 51 51 48 71 76 77 87 82 87 91 107 115 101 68 49 60
180 197 167 174 134 108 92 76 71 47 50 61 46 25 43 55 31 58 71 78 84 83 76 66 56 58 55 51 51 35 54 61 59 71 72 60 49 58 58 96 97 90 58
220 239 192 144 138 135 139 127 95 63 71 59 62 51 48 56 359 7 38 76 75 76 84 93 99 91 73 69 73 65 50 60 77 79 81 82 74 50 47 107 127 168 101
268 252 243 154 177 160 173 151 117 95 95 78 74 56 66 64 6 357 4 71 82 76 77 86 92 95 100 99 106 90 68 53 53 67 78 56 59 17 27 129 86 74 86
261 325 331 33 303 169 174 122 125 128 118 105 86 81 78 67 3 348 343 70 78 81 80 73 73 76 37 65 83 77 67 52 45 63 64 63 54 69 99 108 109 109 115
76 338 326 327 328 169 159 139 142 139 146 127 103 96 90 75 13 358 338 91 72 64 61 34 70 76 9 3 89 91 93 95 84 85 93 93 61 31 1 232 180 197 154
22 12 5 349 317 176 130 158 140 140 152 140 109 76 53 90 30 0 351 143 112 106 100 76 46 33 16 6 72 92 90 81 91 123 131 141 99 80 35 14 341 39 127
33 44 39 29 25 33 77 76 134 158 134 124 116 100 71 33 46 9 4 42 139 99 81 79 61 32 32 27 33 63 67 104 193 173 145 119 108 71 56 29 6 0 354
57 57 51 46 40 35 57 46 36 69 127 129 146 105 61 36 22 27 33 29 25 76 81 76 75 60 58 20 67 9 334 301 260 76 65 50 36 58 74 51 52 43 51
67 63 64 61 55 41 55 57 56 41 91 87 76 101 92 51 47 43 40 37 32 103 87 73 114 153 139 104 16 294 284 259 29 64 65 67 71 41 184 147 126 119 99
81 75 69 66 60 45 45 49 62 73 88 91 106 129 122 110 94 86 80 86 59 75 123 182 214 168 64 76 236 252 20 10 6 43 50 48 73 40 43 342 358 212 192
97 92 86 82 81 73 58 37 66 42 42 117 125 118 136 122 96 65 163 177 156 158 158 203 226 211 159 128 76 35 144 190 79 46 11 11 32 68 38 3 344 329 342
104 98 92 101 101 104 102 88 53 53 59 62 65 91 63 86 118 87 54 45 15 20 242 241 221 278 307 63 178 170 151 252 32 23 8 355 3 349 355 51 328 340 347
110 128 127 152 133 127 127 122 105 66 66 63 80 80 81 123 106 112 133 225 257 295 247 260 274 266 336 308 286 286 239 55 340 349 348 339 336 72 256 314 295 281 263
109 357 136 124 120 129 129 145 149 153 133 125 102 129 93 111 140 215 296 298 210 218 259 279 238 261 290 305 285 253 118 188 214 306 296 313 310 306 288 264 247 308 302
155 119 110 92 72 69 95 82 80 83 101 116 131 183 143 135 175 271 272 263 291 287 259 216 275 286 267 276 289 315 337 330 345 297 250 270 288 274 264 270 135 328 302
87 43 114 135 145 111 99 91 93 96 150 144 191 149 148 178 197 207 217 252 278 273 237 268 218 254 287 284 284 258 251 245 243 239 258 257 270 278 288 258 263 255 206
127 146 328 138 106 85 77 67 51 51 75 74 152 71 54 234 235 198 216 211 247 268 263 285 291 229 213 244 262 257 253 263 238 243 264 239 255 270 268 262 273 245 253
138 185 171 101 115 185 38 79 239 11 40 232 164 130 125 255 277 272 250 265 275 251 276 278 272 263 255 226 227 231 261 264 253 256 255 265 262 245 254 262 264 253 258
160 166 159 173 230 135 218 222 234 225 239 225 250 164 175 220 255 270 267 257 252 255 271 255 260 277 282 263 248 242 256 263 273 261 253 255 253 251 254 257 262 253 249
168 244 314 248 25 333 336 326 359 321 296 301 286 221 231 233 232 245 270 289 275 250 242 245 244 262 288 266 250 240 246 251 263 277 284 272 277 260 248 265 273 265 264
288 284 358 49 272 345 348 360 332 305 294 206 237 301 332 330 298 282 273 247 248 247 246 243 246 255 252 251 269 261 125 125 245 46 283 281 268 274 276 280 266 262 256
70 291 16 23 347 334 337 301 320 342 347 324 325 343 298 290 272 268 260 248 264 277 264 254 252 245 244 250 237 239 161 176 182 192 243 257 264 257 252 257 254 264 262